Location: Lucerne Valley
(34.4439°N, 116.9669°E)
Time: 11:30:29
(UTC-07:00)

N. Korean satellite - Pass Details

Date: 10 October 2017
Orbit: 459 x 517 km, 97.2° (Epoch: 17 October)

Event Time Altitude Azimuth Distance (km) Brightness Sun altitude
Rises 03:45:02 0° 184° (S) 2,574 10.3 -13.3°
Reaches altitude 10° 03:47:14 10° 193° (SSW) 1,686 9.5 -13.8°
Maximum altitude 03:50:36 36° 262° (W) 786 8.3 -14.4°
Drops below altitude 10° 03:53:56 10° 330° (NNW) 1,667 9.7 -15.1°
Sets 03:56:06 0° 339° (NNW) 2,540 10.5 -15.6°
